Location: Aalen
(48.8330°N, 10.1000°E)
Time: 04:14:02
(UTC+02:00)

Transit 2A - Pass Details

Date: 07 August 2021
Orbit: 594 x 964 km, 66.7° (Epoch: 27 September)

Event Time Altitude Azimuth Distance (km) Brightness Sun altitude
Rises 07:14:09 0° 236° (SW) 2,863 8.4 10.4°
Reaches altitude 10° 07:16:26 10° 244° (WSW) 1,990 7.6 10.8°
Maximum altitude 07:20:40 41° 315° (NW) 947 6.4 11.5°
Drops below altitude 10° 07:25:18 10° 26° (NNE) 2,171 9.0 12.2°
Sets 07:27:53 0° 34° (NE) 3,156 9.9 12.6°
